Date String (YYYY-MM-DD hh:mm:ss) UTC,Instrument flags,Ambient pressure (hPa),Sample flow (lpm),Bypass flow (lpm),Sample temperature (°C),Ambient temperature (°C),ASC tube jacket temperature (°C),LED temperature (°C),Box temperature (°C),Sample RH (%),Span deviation,Mass concentration (μg/m³),Mass concentration (μg/m³),Mass concentration (μg/m³)
DateTimeUTC,F1_M11,P_M11,Q1_M11,Q2_M11,T1_M11,T2_M11,T3_M11,T4_M11,T5_M11,U1_M11,ZSPAN_M11,X0_M11,X2_M11,X1_M11
2022-11-22 11:00:00,,0828.6,5.03,0.00,22.2,21.1,00.0,31.1,24.1,09.6,0000.2,0011.39,0007.16,0006.64
2022-11-22 11:01:00,,0828.6,4.98,0.00,22.2,21.0,00.0,31.1,24.1,09.6,0000.4,0011.40,0007.18,0006.67
2022-11-22 11:02:00,,0828.5,5.01,0.00,22.2,20.9,00.0,31.1,24.0,09.6,0000.7,0011.41,0007.20,0006.69
2022-11-22 11:03:00,,0828.5,5.00,0.00,22.2,20.9,00.0,31.1,24.0,09.6,0000.9,0011.53,0007.23,0006.71
2022-11-22 11:04:00,,0828.5,4.99,0.00,22.2,20.9,00.0,31.1,24.0,09.6,0000.0,0011.83,0007.29,0006.74
2022-11-22 11:05:00,,0828.5,5.00,0.00,22.2,20.9,00.0,31.1,24.0,09.6,0000.9,0012.28,0007.31,0006.76
2022-11-22 11:06:00,,0828.5,5.01,0.00,22.1,20.8,00.0,31.1,23.9,09.6,0000.2,0012.29,0007.33,0006.79
2022-11-22 11:07:00,,0828.7,5.00,0.00,22.1,20.8,00.0,31.1,23.8,09.6,0000.0,0012.26,0007.33,0006.80
2022-11-22 11:08:00,,0829.0,4.99,0.00,22.1,20.8,00.0,31.1,23.9,09.6,0000.0,0012.69,0007.31,0006.80
2022-11-22 11:09:00,,0828.9,5.02,0.00,22.1,20.8,00.0,31.1,23.8,09.6,0000.0,0012.64,0007.31,0006.80
2022-11-22 11:10:00,,0829.1,5.00,0.00,22.1,20.8,00.0,31.1,23.9,09.6,0000.0,0012.74,0007.32,0006.80
2022-11-22 11:11:00,,0829.0,4.99,0.00,22.1,20.7,00.0,31.1,23.8,09.6,0000.0,0012.87,0007.33,0006.80
2022-11-22 11:12:00,,0828.9,5.03,0.00,22.1,20.7,00.0,31.0,23.7,09.6,0000.0,0012.92,0007.31,0006.79
2022-11-22 11:13:00,,0828.8,4.99,0.00,22.1,20.7,00.0,31.0,23.8,09.6,0000.0,0012.96,0007.24,0006.74
2022-11-22 11:14:00,,0828.5,4.99,0.00,22.1,20.7,00.0,31.0,23.8,09.6,0000.0,0012.96,0007.19,0006.69
2022-11-22 11:15:00,,0828.6,5.02,0.00,22.1,20.7,00.0,31.0,23.9,09.7,0000.0,0013.15,0007.12,0006.65
2022-11-22 11:16:00,,0828.6,4.99,0.00,22.1,20.7,00.0,31.0,23.8,09.7,0000.0,0012.71,0007.05,0006.59
2022-11-22 11:17:00,,0828.6,5.00,0.00,22.0,20.7,00.0,31.0,23.8,09.6,0000.0,0012.85,0006.96,0006.52
2022-11-22 11:18:00,,0828.7,5.02,0.00,22.0,20.7,00.0,31.0,23.9,09.6,0000.0,0012.82,0006.91,0006.47
2022-11-22 11:19:00,,0828.7,4.99,0.00,22.0,20.7,00.0,31.0,23.8,09.6,0000.0,0012.31,0006.86,0006.43
2022-11-22 11:20:00,,0828.9,4.98,0.00,22.0,20.7,00.0,31.0,23.7,09.6,0000.0,0012.15,0006.77,0006.37
2022-11-22 11:21:00,,0828.8,4.99,0.00,22.0,20.6,00.0,31.0,23.7,09.7,0000.0,0012.03,0006.71,0006.31
2022-11-22 11:22:00,,0829.1,5.02,0.00,22.0,20.6,00.0,31.0,23.8,09.9,0000.0,0011.96,0006.66,0006.25
2022-11-22 11:23:00,,0828.9,4.99,0.00,22.0,20.6,00.0,31.0,23.8,09.9,0000.0,0012.39,0006.66,0006.20
2022-11-22 11:24:00,,0828.9,5.01,0.00,22.0,20.6,00.0,31.0,23.8,09.8,0000.0,0012.30,0006.66,0006.19
2022-11-22 11:25:00,,0829.1,5.01,0.00,22.0,20.6,00.0,31.0,23.7,09.8,0000.0,0012.14,0006.65,0006.19
2022-11-22 11:26:00,,0828.8,4.99,0.00,22.0,20.6,00.0,31.0,23.8,09.7,0000.0,0011.71,0006.66,0006.20
2022-11-22 11:27:00,,0829.0,5.00,0.00,22.1,21.2,00.0,30.9,24.0,09.7,0000.0,0011.68,0006.71,0006.20
2022-11-22 11:28:00,,0829.1,5.01,0.00,22.2,22.1,00.0,30.9,24.2,09.7,0000.0,0011.39,0006.73,0006.21
2022-11-22 11:29:00,,0829.0,5.00,0.00,22.2,22.1,00.0,31.0,24.3,09.7,0000.0,0011.18,0006.74,0006.21
2022-11-22 11:30:00,,0828.9,4.99,0.00,22.3,21.8,00.0,31.0,24.3,09.7,0000.0,0011.58,0006.75,0006.21
2022-11-22 11:31:00,,0828.7,4.99,0.00,22.3,21.6,00.0,31.1,24.2,09.6,0000.0,0011.92,0006.78,0006.22
2022-11-22 11:32:00,,0829.0,5.02,0.00,22.3,21.5,00.0,31.1,24.2,09.6,0000.0,0012.04,0006.78,0006.25
2022-11-22 11:33:00,,0828.6,5.00,0.00,22.3,21.3,00.0,31.1,24.2,09.6,0000.0,0011.90,0006.78,0006.26
2022-11-22 11:34:00,,0828.7,4.99,0.00,22.3,21.2,00.0,31.1,24.2,09.5,0000.0,0011.35,0006.77,0006.27
2022-11-22 11:35:00,,0828.7,5.00,0.00,22.3,21.2,00.0,31.1,24.1,09.6,0000.0,0011.21,0006.78,0006.29
2022-11-22 11:36:00,,0829.1,5.01,0.00,22.3,21.1,00.0,31.1,24.1,09.6,0000.0,0011.16,0006.78,0006.30
2022-11-22 11:37:00,,0829.2,4.99,0.00,22.3,21.0,00.0,31.1,24.1,09.6,0000.0,0011.08,0006.79,0006.31
2022-11-22 11:38:00,,0829.2,5.02,0.00,22.2,21.0,00.0,31.1,24.1,09.6,0001.3,0011.10,0006.80,0006.33
2022-11-22 11:39:00,,0829.2,4.99,0.00,22.2,21.0,00.0,31.1,24.1,09.6,0000.0,0011.36,0006.81,0006.35
2022-11-22 11:40:00,,0829.2,4.99,0.00,22.2,20.9,00.0,31.1,24.1,09.6,0000.0,0011.52,0006.81,0006.36
2022-11-22 11:41:00,,0829.2,5.00,0.00,22.2,20.9,00.0,31.1,24.0,09.5,0000.0,0011.44,0006.81,0006.37
2022-11-22 11:42:00,,0829.2,4.99,0.00,22.2,20.9,00.0,31.1,24.0,09.5,0000.0,0011.57,0006.79,0006.37
2022-11-22 11:43:00,,0829.2,5.02,0.00,22.2,20.9,00.0,31.1,24.0,09.5,0000.0,0011.40,0006.79,0006.38
2022-11-22 11:44:00,,0829.2,4.99,0.00,22.2,20.9,00.0,31.1,24.0,09.5,0000.0,0011.46,0006.78,0006.39
2022-11-22 11:45:00,,0829.2,5.01,0.00,22.2,20.9,00.0,31.1,24.1,09.5,0000.0,0011.51,0006.81,0006.41
2022-11-22 11:46:00,,0829.2,5.00,0.00,22.2,20.9,00.0,31.1,24.0,09.5,0000.0,0011.66,0006.82,0006.42
2022-11-22 11:47:00,,0829.1,4.99,0.00,22.2,20.9,00.0,31.1,24.0,09.5,0001.2,0011.76,0006.82,0006.42
2022-11-22 11:48:00,,0828.8,5.01,0.00,22.2,21.0,00.0,31.1,24.1,09.5,0002.9,0011.79,0006.83,0006.42
2022-11-22 11:49:00,,0829.1,4.99,0.00,22.2,20.9,00.0,31.1,24.1,09.5,0006.3,0011.97,0006.79,0006.42
2022-11-22 11:50:00,,0829.0,5.00,0.00,22.2,21.0,00.0,31.1,24.1,09.5,0005.8,0012.08,0006.78,0006.42
2022-11-22 11:51:00,,0829.3,5.00,0.00,22.2,21.0,00.0,31.1,24.1,09.5,0007.2,0011.80,0006.77,0006.42
2022-11-22 11:52:00,,0829.1,5.00,0.00,22.2,21.0,00.0,31.1,24.1,09.6,0006.9,0011.53,0006.78,0006.43
2022-11-22 11:53:00,,0829.0,5.00,0.00,22.2,21.0,00.0,31.1,24.1,09.6,0006.3,0011.52,0006.82,0006.46
2022-11-22 11:54:00,,0828.8,5.00,0.00,22.2,20.9,00.0,31.1,24.1,09.7,0006.3,0011.78,0006.88,0006.49
2022-11-22 11:55:00,,0828.7,5.00,0.00,22.2,20.9,00.0,31.1,24.1,09.7,0006.2,0012.22,0006.95,0006.54
2022-11-22 11:56:00,,0828.7,5.00,0.00,22.2,20.9,00.0,31.1,24.1,09.7,0006.5,0013.27,0006.96,0006.59
2022-11-22 11:57:00,,0828.7,4.99,0.00,22.2,20.9,00.0,31.1,24.0,09.7,0006.3,0013.54,0007.01,0006.64
2022-11-22 11:58:00,,0828.7,4.99,0.00,22.1,20.8,00.0,31.1,24.0,09.7,0006.2,0013.59,0007.07,0006.67
2022-11-22 11:59:00,,0828.7,5.00,0.00,22.1,20.8,00.0,31.1,24.0,09.7,0006.4,0013.62,0007.09,0006.70
